Simultaneous Nadir Overpasses (SNOs) Predictions

Prediction of SNOs between GOES-14 and AQUA Satellite Orbit:

Table of predicted SNOs for the next 14.0 days since TLE Epoch: 12/31/2023
Index Date Time (GOES-14) GOES-14 Lat,Lon AQUA Lat,Lon Distance(km) Time Diff (sec)
1 01/01/2024 09:04:36 -0.08,-108.60 -0.60,-106.03 291.57 80
2 01/01/2024 21:22:32 0.08,-108.58 -0.45,-111.02 276.80 80
3 01/03/2024 21:09:54 0.08,-108.58 0.35,-107.28 148.15 80
4 01/04/2024 09:27:42 -0.08,-108.59 0.67,-112.24 414.04 80
5 01/06/2024 09:15:03 -0.08,-108.59 -0.10,-108.49 11.05 80
6 01/08/2024 08:59:44 -0.07,-108.58 -0.92,-104.75 435.91 80
7 01/08/2024 21:17:39 0.07,-108.56 -0.15,-109.73 132.49 80
8 01/10/2024 21:04:58 0.06,-108.55 0.59,-105.98 292.12 80
9 01/11/2024 09:22:44 -0.06,-108.56 0.47,-110.93 270.19 80
10 01/13/2024 09:10:04 -0.06,-108.54 -0.38,-107.19 154.43 80
11 01/13/2024 21:27:58 0.06,-108.52 -0.73,-112.16 413.91 80
